Terminal Aerodrome Forecast
Issued by NWS

Home | Current Version | Previous Version | Graphics & Text | Print | Product List | Glossary On
Versions: 1 2 3 4 5 6 7 8 9 10 11 12 13 14 15 16
000
FTUS45 KGGW 251500 AAA
TAFSDY
TAF AMD
KSDY 251522Z 2515/2612 10011KT P6SM SCT015 BKN100
      TEMPO 2515/2519 BKN015
     FM251900 14012KT P6SM VCSH OVC020
     FM252100 VRB04KT 6SM -SHRA BKN040 OVC080
     FM260000 29013KT 6SM -SHRA OVC030
      AMD LTD TO CLD VIS AND WIND=

USA.gov is the U.S. government's official web portal to all federal, state and local government web resources and services.